Weather History for Crystal River, FL

Change the Weather History Date:

Friday, January 25, 2013

  Actual Average (KBKV) Record (KBKV)
Temperature  
Mean Temperature 58 °F -  
Max Temperature 73 °F 67 °F 82 °F (2002)
Min Temperature 44 °F 42 °F 24 °F (2003)
Degree Days  
Heating Degree Days 6    
Growing Degree Days 8 (Base 50)    
Moisture  
Dew Point 48 °F    
Average Humidity 81    
Maximum Humidity 100    
Minimum Humidity 38    
Precipitation  
Precipitation 0.00 in - - ()
Sea Level Pressure  
Sea Level Pressure 30.27 in    
Wind  
Wind Speed 1 mph (WSW)    
Max Wind Speed 12 mph    
Max Gust Speed -    
Visibility 7 miles    
Events Fog    
Averages and records for this station are not official NWS values.
T = Trace of Precipitation, MM = Missing Value Source: NWS Daily Summary

Daily Weather History Graph

Daily Weather History Graph

Search for Another Location

Airport:

Trip Planner

Search our weather history database for the weather conditions in past years. The results will help you decide how hot, cold, wet, or windy it might be!

Date:

Astronomy

Jan. 25, 2013 Rise Set
Actual Time 7:21 AM EST 6:03 PM EST
Civil Twilight 6:56 AM EST 6:28 PM EST
Nautical Twilight 6:28 AM EST 6:57 PM EST
Astronomical Twilight 6:00 AM EST 7:25 PM EST
Moon 4:59 PM EST (1/25) 6:00 AM EST (1/25)
Length of Visible Light 11h 31m
Length of Day
10h 41m
Waxing Gibbous, 98% of the Moon is Illuminated
Jan 25
Waxing Gibbous
Jan 26
Full
Feb 3
Last Quarter
Feb 10
New
Feb 17
First Quarter

Hourly Weather History & Observations

Time (EST) Temp. Dew Point Humidity Pressure Visibility Wind Dir Wind Speed Gust Speed Precip Events Conditions
12:15 AM 46.4 °F 46.4 °F 100% 30.31 in 0.8 mi Calm Calm - N/A   Overcast
12:35 AM 48.2 °F 48.2 °F 100% 30.31 in 4.0 mi Calm Calm - N/A   Overcast
12:55 AM 48.2 °F 48.2 °F 100% 30.30 in 4.0 mi Calm Calm - N/A   Overcast
1:15 AM 48.2 °F 48.2 °F 100% 30.30 in 5.0 mi Calm Calm - N/A   Overcast
1:35 AM 48.2 °F 48.2 °F 100% 30.30 in 0.2 mi Calm Calm - N/A Fog Fog
1:55 AM 46.4 °F 46.4 °F 100% 30.30 in 0.2 mi Calm Calm - N/A Fog Fog
2:15 AM 46.4 °F 46.4 °F 100% 30.29 in 0.2 mi Calm Calm - N/A Fog Fog
2:35 AM 46.4 °F 46.4 °F 100% 30.28 in 0.5 mi Calm Calm - N/A Fog Fog
2:55 AM 46.4 °F 46.4 °F 100% 30.28 in 0.2 mi Calm Calm - N/A Fog Fog
3:15 AM 46.4 °F 46.4 °F 100% 30.27 in 0.2 mi Calm Calm - N/A Fog Fog
3:35 AM 46.4 °F 46.4 °F 100% 30.27 in 0.2 mi Calm Calm - N/A Fog Fog
3:55 AM 46.4 °F 46.4 °F 100% 30.27 in 0.2 mi Calm Calm - N/A Fog Fog
4:15 AM 46.4 °F 46.4 °F 100% 30.28 in 0.2 mi Calm Calm - N/A Fog Fog
4:35 AM 46.4 °F 46.4 °F 100% 30.28 in 0.2 mi Calm Calm - N/A Fog Fog
4:55 AM 46.4 °F 46.4 °F 100% 30.28 in 0.2 mi Calm Calm - N/A Fog Fog
5:15 AM 44.6 °F 44.6 °F 100% 30.28 in 0.2 mi Calm Calm - N/A Fog Fog
5:35 AM 44.6 °F 44.6 °F 100% 30.29 in 0.2 mi Calm Calm - N/A Fog Fog
5:55 AM 44.6 °F 44.6 °F 100% 30.30 in 0.5 mi Calm Calm - N/A Fog Fog
6:15 AM 44.6 °F 44.6 °F 100% 30.30 in 0.5 mi Calm Calm - N/A Fog Fog
6:35 AM 44.6 °F 44.6 °F 100% 30.31 in 1.0 mi Calm Calm - N/A   Mist
6:55 AM 44.6 °F 44.6 °F 100% 30.30 in 5.0 mi Calm Calm - N/A   Overcast
7:15 AM 44.6 °F 44.6 °F 100% 30.31 in 5.0 mi Calm Calm - N/A   Mostly Cloudy
7:35 AM 44.6 °F 44.6 °F 100% 30.31 in 5.0 mi Calm Calm - N/A   Scattered Clouds
7:55 AM 44.6 °F 44.6 °F 100% 30.31 in 7.0 mi Calm Calm - N/A   Clear
8:35 AM 50.0 °F 50.0 °F 100% 30.32 in 7.0 mi Calm Calm - N/A   Clear
8:55 AM 53.6 °F 53.6 °F 100% 30.32 in 7.0 mi Calm Calm - N/A   Clear
9:15 AM 55.4 °F 55.4 °F 100% 30.32 in 10.0 mi East 3.5 mph - N/A   Clear
9:35 AM 59.0 °F 55.4 °F 88% 30.32 in 10.0 mi East 5.8 mph - N/A   Clear
9:55 AM 60.8 °F 57.2 °F 88% 30.33 in 10.0 mi East 4.6 mph - N/A   Clear
10:15 AM 62.6 °F 57.2 °F 82% 30.33 in 10.0 mi ENE 4.6 mph - N/A   Clear
10:35 AM 62.6 °F 57.2 °F 82% 30.33 in 10.0 mi Calm Calm - N/A   Clear
10:55 AM 68.0 °F 55.4 °F 64% 30.32 in 10.0 mi ESE 3.5 mph - N/A   Clear
11:15 AM 69.8 °F 51.8 °F 53% 30.32 in 10.0 mi East 4.6 mph - N/A   Clear
11:35 AM 69.8 °F 50.0 °F 49% 30.32 in 10.0 mi ENE 3.5 mph - N/A   Clear
11:55 AM 71.6 °F 44.6 °F 38% 30.30 in 10.0 mi Calm Calm - N/A   Clear
12:15 PM 69.8 °F 46.4 °F 43% 30.29 in 10.0 mi Calm Calm - N/A   Scattered Clouds
12:35 PM 71.6 °F 46.4 °F 41% 30.28 in 10.0 mi Calm Calm - N/A   Scattered Clouds
12:55 PM 71.6 °F 46.4 °F 41% 30.26 in 10.0 mi Calm Calm - N/A   Scattered Clouds
1:15 PM 71.6 °F 46.4 °F 41% 30.25 in 10.0 mi SE 4.6 mph - N/A   Scattered Clouds
1:35 PM 73.4 °F 46.4 °F 38% 30.24 in 10.0 mi WSW 4.6 mph - N/A   Scattered Clouds
1:55 PM 71.6 °F 48.2 °F 43% 30.23 in 10.0 mi West 9.2 mph - N/A   Scattered Clouds
2:15 PM 71.6 °F 48.2 °F 43% 30.22 in 10.0 mi WSW 10.4 mph - N/A   Scattered Clouds
2:35 PM 71.6 °F 46.4 °F 41% 30.22 in 10.0 mi West 8.1 mph - N/A   Clear
2:55 PM 71.6 °F 46.4 °F 41% 30.21 in 10.0 mi WSW 9.2 mph - N/A   Clear
3:15 PM 71.6 °F 46.4 °F 41% 30.21 in 10.0 mi West 9.2 mph - N/A   Clear
3:35 PM 71.6 °F 46.4 °F 41% 30.21 in 10.0 mi West 11.5 mph - N/A   Clear
3:55 PM 69.8 °F 46.4 °F 43% 30.21 in 10.0 mi WNW 6.9 mph - N/A   Clear
4:15 PM 69.8 °F 46.4 °F 43% 30.21 in 10.0 mi West 8.1 mph - N/A   Clear
4:35 PM 69.8 °F 46.4 °F 43% 30.21 in 10.0 mi West 6.9 mph - N/A   Clear
4:55 PM 68.0 °F 46.4 °F 46% 30.22 in 10.0 mi West 6.9 mph - N/A   Clear
5:15 PM 66.2 °F 48.2 °F 52% 30.22 in 10.0 mi West 6.9 mph - N/A   Clear
5:35 PM 64.4 °F 51.8 °F 64% 30.22 in 10.0 mi WNW 4.6 mph - N/A   Clear
5:55 PM 62.6 °F 51.8 °F 68% 30.22 in 10.0 mi West 4.6 mph - N/A   Clear
6:15 PM 60.8 °F 53.6 °F 77% 30.22 in 10.0 mi WSW 3.5 mph - N/A   Clear
6:35 PM 60.8 °F 55.4 °F 82% 30.22 in 10.0 mi Calm Calm - N/A   Clear
6:55 PM 57.2 °F 53.6 °F 88% 30.24 in 10.0 mi Calm Calm - N/A   Clear
7:15 PM 57.2 °F 53.6 °F 88% 30.24 in 10.0 mi Calm Calm - N/A   Clear
7:35 PM 55.4 °F 53.6 °F 94% 30.23 in 10.0 mi Calm Calm - N/A   Clear
7:55 PM 53.6 °F 51.8 °F 94% 30.23 in 10.0 mi Calm Calm - N/A   Clear
8:15 PM 51.8 °F 50.0 °F 94% 30.22 in 10.0 mi Calm Calm - N/A   Clear
8:35 PM 50.0 °F 50.0 °F 100% 30.22 in 10.0 mi Calm Calm - N/A   Clear
8:55 PM 50.0 °F 48.2 °F 94% 30.22 in 10.0 mi Calm Calm - N/A   Clear
9:15 PM 48.2 °F 48.2 °F 100% 30.22 in 10.0 mi Calm Calm - N/A   Clear
9:35 PM 48.2 °F 46.4 °F 93% 30.22 in 10.0 mi Calm Calm - N/A   Clear
9:55 PM 46.4 °F 46.4 °F 100% 30.22 in 10.0 mi Calm Calm - N/A   Clear
10:15 PM 46.4 °F 44.6 °F 93% 30.23 in 10.0 mi Calm Calm - N/A   Clear
10:35 PM 44.6 °F 44.6 °F 100% 30.23 in 10.0 mi Calm Calm - N/A   Clear
10:55 PM 44.6 °F 44.6 °F 100% 30.24 in 10.0 mi Calm Calm - N/A   Clear
11:15 PM 44.6 °F 42.8 °F 93% 30.24 in 10.0 mi Calm Calm - N/A   Clear
11:35 PM 44.6 °F 44.6 °F 100% 30.25 in 7.0 mi Calm Calm - N/A   Scattered Clouds
11:55 PM 44.6 °F 44.6 °F 100% 30.25 in 5.0 mi Calm Calm - N/A   Overcast